Volver al catálogo

FLOCK 4Q 13

ActivoCienciaSSO
NORAD 58328·PAYLOAD·🇺🇸 United States

Lanzado Nov 11, 2023 desde Vandenberg Space Force Base

Loading…

Próximos Pases (próximas 24 horas)

TLE

ActualizadoSource: CelesTrak SupGP

Época: Sep 14, 2026, 14:44 UTC

1 58328C 23174CA  26257.61422454  .00033337  00000+0  48729-3 0  2571
2 58328  97.3981 351.2887 0006118 168.2165 342.6884 15.55595375    10

Sigue FLOCK 4Q 13 en tiempo real con AllMySat

Download on the App Store